Location: Hamburg
(53.5554°N, 9.9941°E)
Time: 14:09:04
(UTC+02:00)

ISS - Pass Details

Date: 10 January 2018
Orbit: 402 x 409 km, 51.6° (Epoch: 21 August)

Event Time Altitude Azimuth Distance (km) Brightness Sun altitude
Exits shadow 05:11:08 17° 109° (ESE) 1,137 -0.9 -28.7°
Drops below altitude 10° 05:12:05 10° 106° (ESE) 1,512 -0.1 -28.6°
Enters shadow 06:08:02 -69° 293° (WNW) 12,312 3.6 -20.3°
